Showing default

DB-PRECISIONFLIGHTWORKSP, 68466

Orbit data source: Space-Track

DB-PRECISIONFLIGHTWORKSP, 68466 is a payload satellite owned by NearSpaceLaunch (US) in SSO that was launched on Mon, 30 Mar 2026 UTC via an FALCON 9 launch vehicle from the Air Force Western Test Range (AFWTR). Payload-class satellites include a variety of spacecraft equipped with specific instruments for various scientific and technological missions. These include communications satellites like Starlink; space stations such as the ISS; scientific satellites like the Hubble; Earth observation satellites from companies like Planet Labs, Umbra, and HawkEye 360; GPS; miniature CubeSats for education and research; and military/defense satellites.

Loading next visibility...
Identifier
68466, 2026-067BC
Orbit
SSO
Country
Flag of USUS
Related business
Manufacturer
NearSpaceLaunch
Mission
Operational Commercial Technology
Bus & Motor
THINSAT 0.5U, Unknown motor
Mass
0.5 kg wet, 0.5 kg dry
Launch date (UTC)
2026-03-30 (6 months ago)
Launch vehicle
FALCON 9
Launch site
Air Force Western Test Range (AFWTR)
Object type
Payload
Rocket body
Debris
Shape & HBR
Box + 2 Pan, 0.2 m
Radar Cross Section
0.017 m², Medium (>0.1 m² and < 1m²)

Expand to show TLE details & history
Last TLE update: 17 hours ago

TLE from 17 hours ago
0 DB-PRECISIONFLIGHTWORKSP
1 68466U 26067BC  26262.97005500  .00005181  00000-0  25283-3 0  9993
2 68466  97.4588 219.8573 0007903 105.7143 254.4964 15.18697960 26169
Epoch: 2026-09-19T23:16Z
TLE epoch observation values (Epoch: 2026-09-19T23:16:52.752Z)
Latitude
-0.00001°
Longitude
-128.23345°
Altitude
514.321 km
Speed
7.606 km/s
True Right ascension
14h 39m 25s
True Declination
0° 00' 00"
Sunlit
Object was in daylight at epoch
Visualization orbit readout
Latitude
Unknown
Longitude
Unknown
Altitude
Unknown
Speed
Unknown
Apparent Right ascension
Unknown
Apparent Declination
Unknown
Sunlit
N/A
Visualization observer readout
Local Sidereal Time
09:41:52
Azimuth
Unknown
Elevation
Unknown
Doppler factor
Unknown
Orbital elements
Apogee altitude
512.186 km
Perigee altitude
501.303 km
Semi-major axis
6,884.881 km
Eccentricity
0.00079
Inclination
97.4588°
RAAN
219.8573°
Arg. of periapsis
105.7143°
True anomaly
254.40916°
Mean anomaly
254.4964°
Eccentric anomaly
254.45278°
Mean motion
3.79926 °/min
Orbital period
94.76 mins
BSTAR
0.00025283
Loading maneuver chart data...
Computing Atmospheric mass density...
Loading historical data...
Loading historical data...
Loading historical data...
Loading historical data...
Loading historical data...
Loading historical data...
Loading historical data...

Documentation

Showing up to 5 results
|